Theta_e
326 327 328 327 328 327 328 328 329 329 328 328 326 326 327 328 329 329 330 330 331 331 329 329 330 331 330 332 333 334 333 330 330 330 328 328 330 334 334 334 333 334 334 333 332 332 331 332 332 334 334 333 332 332 331 331 332 331 330 328 327 328 326 323 320 317 316 317 319 317 317 319 317 319 317 316 315 314 311 316 315 316 314 315 316
326 326 326 326 326 327 327 328 329 329 329 328 326 326 327 328 329 330 329 330 331 331 330 329 329 329 327 328 329 331 333 333 331 331 328 330 332 335 335 335 334 334 335 332 331 330 331 331 330 333 333 332 332 330 330 330 329 329 327 328 326 327 327 324 321 319 316 315 315 315 316 317 316 317 318 316 314 313 309 311 312 311 310 312 311
325 325 325 325 325 326 326 326 327 328 328 326 326 327 327 329 331 330 330 330 331 331 331 330 330 329 328 329 329 331 333 333 333 332 330 330 334 334 335 335 335 334 334 334 332 332 332 332 333 333 332 332 332 331 331 330 330 328 328 328 327 327 325 325 323 320 318 315 317 314 315 314 317 315 316 316 314 311 308 309 309 308 309 312 310
324 324 324 325 325 325 324 326 327 326 325 327 327 328 329 329 330 330 330 331 330 331 332 331 330 330 330 331 331 332 332 333 333 335 335 335 334 334 334 336 335 335 335 334 333 333 333 332 331 332 332 332 331 331 330 331 330 329 329 328 328 326 326 326 326 324 320 316 313 315 315 315 313 314 314 314 312 310 308 309 309 309 310 309 310
323 323 323 324 325 324 325 326 326 326 326 327 328 328 329 329 329 329 330 329 330 330 330 331 330 330 330 330 330 331 332 333 333 334 335 336 335 335 334 335 335 335 335 334 333 334 333 333 332 332 332 331 330 330 329 330 329 330 329 328 327 327 326 325 325 323 321 319 316 313 315 314 314 313 313 312 311 309 308 309 309 309 311 311 310
322 322 322 322 324 324 325 325 326 326 327 328 328 328 329 329 329 329 329 329 329 329 329 329 329 329 329 329 330 330 330 332 333 333 334 334 335 335 335 334 334 335 335 335 334 334 334 333 332 332 331 331 330 330 330 330 329 329 329 327 327 327 326 324 324 323 322 320 317 312 313 312 311 313 313 313 312 308 307 308 309 310 310 311 311
321 321 321 322 322 323 324 324 326 326 327 328 328 327 327 328 328 328 329 330 329 328 328 328 329 328 328 329 328 329 329 331 333 333 332 332 333 333 333 334 333 334 334 334 334 334 334 333 333 332 332 332 331 330 330 330 330 330 330 329 328 327 325 324 322 321 321 319 316 316 314 314 315 313 311 312 312 310 309 308 309 310 312 312 312
318 319 320 320 320 321 322 324 325 326 326 326 326 326 327 327 328 328 328 328 328 328 327 327 326 328 327 326 327 328 329 329 330 330 330 331 332 332 332 333 332 332 333 333 334 334 333 333 332 332 332 332 332 331 331 330 330 330 330 330 329 327 325 324 322 321 320 319 317 314 313 312 311 313 311 310 309 308 308 309 308 310 313 315 314
316 317 318 318 318 320 321 322 324 324 324 324 325 325 325 326 327 328 328 328 328 327 326 324 322 322 323 326 326 327 327 327 328 328 329 330 331 331 332 331 331 330 330 329 330 330 330 330 329 330 328 321 314 318 320 321 331 330 330 330 328 327 326 324 323 320 320 319 317 316 313 312 312 312 310 310 310 311 313 312 310 312 314 314 315
313 313 314 316 318 319 321 322 323 323 322 323 324 325 325 325 326 327 328 328 327 326 326 326 322 320 320 321 323 326 327 327 320 313 317 328 329 330 331 331 329 328 326 325 325 327 327 327 324 315 311 310 306 301 301 306 309 322 330 330 328 327 325 324 322 322 321 319 318 316 314 314 313 314 314 315 316 315 312 313 311 312 313 312 313
311 311 311 313 316 318 319 320 322 321 321 322 323 324 324 324 325 325 326 325 324 324 324 322 321 320 320 320 322 324 324 323 305 303 305 310 324 328 329 328 328 327 325 324 323 323 322 321 319 314 312 309 305 297 297 297 297 297 298 301 309 328 326 323 323 322 320 320 319 316 315 316 315 314 314 315 314 313 313 314 312 312 311 310 309
309 309 310 312 314 316 317 319 320 320 321 320 320 322 323 323 324 324 324 323 323 324 323 322 320 318 317 318 320 321 323 307 298 300 302 305 313 328 329 328 328 327 326 323 322 322 321 321 321 322 321 318 314 310 303 297 296 296 296 296 295 293 297 320 323 319 320 319 316 316 315 315 314 314 313 313 313 312 313 313 312 312 312 311 311
305 307 309 310 311 314 316 317 318 318 318 319 320 321 321 321 321 319 317 319 321 320 318 320 318 316 315 316 318 319 318 297 297 299 300 302 305 318 327 328 326 325 324 324 323 323 323 323 323 323 321 318 319 318 315 310 300 298 299 299 298 296 294 293 297 321 321 318 317 315 316 315 315 316 316 314 315 316 315 313 314 313 313 312 313
303 304 306 308 309 312 315 316 316 317 317 317 317 318 317 316 316 316 316 317 318 317 316 315 315 315 317 318 318 317 316 300 297 298 299 300 303 313 327 326 326 324 324 324 325 325 325 323 322 322 324 325 324 322 321 320 320 321 321 320 317 311 302 300 301 301 313 322 321 319 318 321 320 320 320 319 319 318 318 317 318 316 315 315 317
303 303 303 305 307 309 312 315 315 315 315 314 314 314 314 314 313 313 314 314 314 315 315 313 313 315 316 317 316 314 310 295 296 297 298 300 302 311 326 325 324 324 324 324 324 325 326 325 324 323 323 324 324 322 324 323 322 321 319 318 317 316 315 314 315 319 320 322 321 320 319 319 320 319 320 321 321 321 321 320 319 319 319 319 319
302 301 300 302 304 307 309 313 314 314 313 312 311 310 310 311 311 311 310 310 310 311 312 314 315 315 315 315 315 313 308 294 296 297 298 300 304 323 324 324 323 322 321 321 321 322 323 324 324 323 323 320 307 304 313 323 323 321 319 318 317 314 310 301 294 296 308 316 317 316 312 305 299 307 307 314 320 321 319 319 320 319 318 317 314
301 301 301 301 303 305 307 310 313 313 313 311 309 308 308 308 309 310 309 309 307 307 309 313 314 315 315 315 315 313 310 298 295 296 298 301 311 324 323 322 321 319 318 319 320 320 321 322 323 321 319 315 301 300 303 311 322 321 319 318 317 314 312 308 295 292 293 292 292 291 291 292 293 293 293 293 306 313 320 316 314 316 313 311 312
300 300 300 300 302 304 306 308 310 312 312 311 310 308 307 307 308 309 308 307 307 307 308 307 308 310 312 313 313 312 309 300 295 297 299 304 312 322 321 319 318 317 315 314 314 312 309 307 314 318 315 311 295 299 302 315 321 319 318 317 315 312 311 313 312 304 292 293 292 292 292 293 294 295 294 295 298 307 317 312 314 313 311 311 308
300 300 300 300 301 303 305 306 308 310 310 310 310 308 307 307 307 307 306 305 305 306 306 305 305 307 308 309 308 310 310 304 296 296 298 303 315 322 319 316 315 313 313 311 311 309 305 302 299 304 307 300 292 295 300 312 319 319 317 316 312 310 309 314 315 315 314 313 312 312 309 306 311 311 307 297 299 306 315 314 314 311 308 307 308
301 302 302 302 302 303 303 304 305 307 310 310 310 309 308 307 306 305 304 304 304 305 304 304 303 304 306 307 308 309 309 306 299 295 298 299 303 318 318 316 312 312 312 310 308 306 305 303 298 292 292 293 293 294 296 301 316 318 317 315 312 308 310 312 312 314 313 312 312 312 311 311 311 311 311 310 309 308 309 310 312 312 309 307 307
302 303 303 302 301 302 303 303 303 305 308 311 311 310 309 307 307 306 305 305 305 304 303 303 303 302 302 303 304 304 306 306 300 294 295 297 299 306 312 310 309 308 308 307 306 304 302 300 298 293 292 292 293 293 295 296 301 314 314 313 311 308 306 310 306 303 309 309 309 310 310 310 309 309 308 308 307 308 307 308 308 310 309 307 306
302 303 303 302 302 303 302 302 303 303 306 310 309 307 308 308 307 306 306 304 303 303 303 303 302 301 300 300 300 300 300 300 302 294 293 295 295 299 308 308 306 307 306 305 303 302 301 300 298 293 291 292 292 292 293 294 296 304 300 292 292 295 306 306 306 306 306 306 306 305 306 306 306 307 306 305 305 305 307 307 307 307 307 308 307
301 302 302 302 302 302 303 302 301 302 302 304 306 305 306 305 306 306 305 304 303 302 302 302 302 301 300 300 300 300 299 298 294 297 293 293 293 294 296 301 298 309 306 303 301 300 301 299 296 293 291 291 292 292 293 293 295 295 290 291 292 293 298 304 305 306 305 305 305 304 303 304 304 305 304 304 304 305 306 306 306 306 305 304 304
299 300 301 301 302 301 301 301 301 301 301 301 300 300 301 302 302 302 304 304 303 302 301 301 301 300 299 299 299 300 300 298 294 293 294 292 293 293 293 294 297 304 305 303 302 302 300 298 294 291 291 291 290 290 291 292 294 290 291 291 293 296 304 304 303 304 302 302 302 302 302 303 304 303 302 303 303 304 304 305 305 305 305 305 304
299 299 300 301 301 301 301 301 301 300 299 300 298 298 298 299 299 300 300 301 301 299 299 299 299 298 298 298 298 299 299 299 299 296 292 291 291 292 292 293 293 295 299 300 298 297 292 290 291 291 291 291 291 291 291 290 289 290 291 293 298 303 303 304 304 303 302 301 302 302 301 301 300 300 302 304 304 305 305 304 305 304 304 304 303
300 299 300 300 300 300 300 300 301 300 299 299 298 297 297 297 297 298 298 298 298 297 297 298 298 297 297 297 298 298 298 298 298 298 297 296 293 291 291 291 292 292 293 292 290 290 290 291 291 292 293 294 297 296 295 294 290 291 292 295 302 302 304 304 304 303 302 301 300 300 300 301 300 301 303 304 303 301 302 302 302 301 303 302 301
299 300 300 300 300 299 299 299 299 299 300 298 298 298 297 297 296 297 297 297 296 296 296 296 297 297 296 296 297 297 296 295 295 296 297 298 298 298 298 297 294 294 296 296 294 295 294 294 292 290 290 290 291 291 292 293 295 296 296 297 298 300 301 302 303 302 300 300 299 299 300 300 301 301 300 300 299 299 301 299 300 299 301 300 300
299 299 300 300 300 300 298 291 295 297 296 296 296 297 297 296 294 293 295 297 296 296 296 295 295 296 296 297 297 297 297 295 293 292 294 297 298 297 298 298 298 297 298 299 298 296 295 293 294 297 297 297 296 296 296 296 295 294 296 296 297 296 294 293 295 299 299 299 299 299 299 299 299 299 299 298 299 298 300 299 299 299 299 300 298
299 299 299 300 299 300 300 299 299 297 296 294 292 292 295 296 295 293 293 294 295 297 297 296 296 297 297 297 297 296 295 294 292 288 289 289 293 299 298 298 297 297 296 293 298 298 297 296 295 295 294 291 292 295 295 295 294 295 297 298 298 299 300 300 299 299 300 300 299 298 298 298 298 299 298 297 298 299 301 299 300 299 299 299 297
298 297 298 298 299 300 300 300 300 298 298 296 294 292 288 289 292 294 292 289 288 289 290 292 294 298 296 295 295 297 296 294 287 287 288 289 289 290 290 290 291 294 292 291 294 293 291 291 292 293 292 294 293 292 293 293 292 293 292 291 296 296 296 297 298 297 298 298 298 296 296 296 297 298 298 298 297 297 297 296 298 299 297 298 297
297 297 296 296 295 298 299 300 300 300 299 298 297 295 294 292 289 289 289 289 289 288 288 288 288 288 295 296 292 288 288 287 287 289 289 289 289 289 289 290 290 290 291 294 293 292 292 292 292 292 292 293 292 290 292 292 292 292 292 292 293 293 293 294 294 293 293 293 294 294 294 296 295 296 296 295 296 296 297 296 297 298 297 297 295
297 297 297 297 296 297 298 298 299 299 299 299 298 297 295 293 293 290 289 289 289 289 288 288 288 288 288 290 294 294 289 288 288 289 289 289 289 289 289 289 289 290 290 292 293 293 293 292 292 291 292 291 290 291 292 292 292 292 293 292 292 292 292 293 293 295 294 294 294 293 294 294 295 294 294 294 293 294 295 293 294 295 295 295 295
298 298 298 298 297 296 296 296 296 297 298 298 299 298 298 297 294 294 293 289 289 289 288 288 289 288 289 289 288 288 288 289 289 289 289 289 289 289 289 289 289 290 291 292 291 291 291 292 293 293 292 291 292 291 293 294 294 292 294 293 292 293 294 293 291 295 293 294 294 293 293 294 294 293 292 292 292 292 293 293 295 295 294 293 292
297 297 297 297 297 297 297 297 296 296 296 296 297 297 297 298 298 297 295 294 294 292 290 289 288 289 288 288 288 289 289 289 289 289 289 289 289 289 289 290 290 290 291 292 292 292 293 293 293 293 293 293 293 291 292 292 293 293 292 294 295 295 295 296 296 293 293 293 293 292 293 294 293 293 293 293 293 292 293 293 293 292 291 292 292
296 290 287 292 298 297 297 297 296 296 296 297 296 295 296 295 296 295 295 294 293 292 291 291 290 288 289 288 288 288 288 288 288 288 288 288 288 289 291 294 291 292 293 294 294 293 293 293 293 294 294 293 293 292 293 294 294 294 293 292 294 294 293 293 292 294 293 294 293 293 293 292 293 293 293 292 292 292 292 292 293 293 292 291 291
297 297 297 296 298 298 298 298 298 297 296 295 295 295 294 294 294 294 294 295 295 295 294 293 292 290 289 289 288 288 288 287 287 287 287 288 288 290 292 291 290 290 290 291 291 290 292 293 293 294 294 294 294 294 294 294 294 295 295 294 291 291 293 293 292 292 291 292 292 291 292 292 293 292 293 293 292 292 292 292 292 291 291 291 291
296 297 297 297 297 297 297 297 297 296 292 294 295 296 296 294 294 295 294 294 293 294 295 295 296 296 293 293 290 289 288 288 288 287 287 288 288 290 291 290 290 290 289 289 290 290 290 289 290 292 293 293 293 294 293 294 294 294 292 294 294 293 293 293 293 291 293 293 293 292 291 292 292 292 292 291 291 292 292 292 291 290 290 289 289
295 295 296 297 298 298 298 297 294 291 294 296 296 296 296 296 295 294 293 292 292 292 294 294 292 294 293 294 294 292 291 290 290 290 289 289 289 289 289 289 290 289 288 288 288 289 288 288 289 290 290 291 292 293 293 293 293 292 293 291 292 291 289 290 289 291 291 293 292 292 292 292 292 292 291 291 291 291 291 291 291 291 290 289 290
295 287 285 287 290 297 297 296 295 296 296 296 295 294 293 293 294 293 294 294 293 292 292 294 294 293 293 294 295 296 295 294 291 290 289 289 289 290 290 290 289 289 289 289 289 289 289 288 288 288 289 290 292 293 293 292 293 293 292 293 292 292 292 293 292 292 292 292 293 293 293 292 292 292 292 291 290 290 290 290 290 290 290 290 290
297 296 291 288 294 293 294 295 295 296 294 296 296 295 294 294 294 293 293 293 292 292 293 293 292 292 292 292 292 294 293 291 291 290 289 289 288 289 290 289 288 289 289 289 289 289 289 288 288 288 288 289 291 292 293 291 291 292 292 292 292 292 292 292 293 293 292 293 293 293 293 292 292 292 291 291 291 291 290 290 290 289 290 290 289
297 296 291 290 290 295 294 295 295 295 296 296 296 295 294 293 294 293 294 293 291 292 292 293 293 293 290 288 285 288 293 292 292 291 290 289 289 289 289 289 289 289 289 289 289 290 289 288 287 287 287 288 290 289 292 291 291 291 291 291 291 290 291 291 292 292 292 292 293 292 292 293 293 292 291 290 289 290 291 291 290 290 290 290 290
297 296 296 295 295 296 295 294 294 292 294 295 295 294 293 293 295 294 293 292 292 292 292 293 293 293 288 284 286 286 293 293 293 292 292 291 291 290 289 290 290 290 290 290 290 288 288 287 287 287 287 288 289 289 290 290 291 292 291 291 291 291 291 292 292 292 292 293 292 292 292 292 292 291 290 290 291 291 291 291 291 290 290 290 289
296 296 296 294 295 295 294 294 295 296 295 295 294 291 292 294 294 294 293 292 293 292 293 292 294 294 291 285 286 287 293 293 289 291 292 291 291 290 290 290 290 291 291 291 290 290 289 289 288 288 287 287 288 288 290 290 290 290 291 290 291 291 291 291 291 292 292 291 291 290 290 291 292 292 291 291 291 291 290 290 290 290 290 289 289
295 294 295 294 294 294 294 296 295 294 294 290 291 293 293 294 295 294 294 294 292 293 292 292 293 293 292 293 291 292 293 293 293 293 291 290 291 290 290 290 290 289 290 289 289 289 289 288 289 289 288 289 289 288 288 288 288 289 290 290 290 289 290 290 290 290 291 292 291 291 291 290 290 291 289 289 290 290 290 289 289 289 289 289 288
296 295 295 295 296 295 295 295 294 294 291 292 294 294 292 294 295 293 293 294 294 294 293 292 292 291 292 293 293 293 293 293 291 291 291 292 291 291 291 290 289 289 289 288 289 288 288 288 288 287 287 287 287 287 287 287 287 287 288 288 289 289 289 288 288 288 288 289 291 291 291 291 290 291 291 290 289 289 289 288 287 285 286 287 287
296 295 295 295 295 294 294 295 292 295 294 293 294 294 294 294 294 294 293 294 293 293 293 293 293 292 292 293 293 291 293 293 293 292 291 291 291 291 291 290 289 289 288 289 289 288 288 288 288 288 287 287 287 287 286 286 286 286 286 286 286 287 287 287 287 287 288 289 290 291 291 290 290 290 288 290 290 289 288 286 287 287 287 287 287
298 297 295 296 296 295 294 295 294 294 294 294 294 293 293 294 294 292 291 291 292 292 293 294 295 294 292 292 293 293 292 292 292 292 291 291 291 290 290 289 289 289 288 288 287 288 286 286 287 287 287 287 287 286 287 287 286 286 286 286 285 285 285 285 286 286 288 288 289 290 290 290 290 290 287 288 288 287 286 287 287 286 287 288 288
296 296 296 295 295 294 294 294 293 290 294 293 293 293 293 294 294 294 294 294 294 294 294 294 294 294 294 294 294 292 292 292 292 293 292 291 291 290 289 288 288 289 288 287 287 287 287 286 285 285 285 284 285 286 287 287 287 286 286 286 285 283 280 280 286 287 288 288 288 288 288 289 290 289 289 287 287 287 286 287 287 287 287 287 287
296 295 295 295 295 295 295 295 294 295 295 294 295 294 293 294 294 294 294 295 294 294 295 294 294 294 294 294 294 293 293 291 293 293 292 292 291 291 290 289 287 288 288 288 287 286 286 286 285 285 285 285 284 285 286 285 286 286 285 285 281 276 278 278 283 286 284 287 287 287 287 287 287 287 286 286 286 287 287 286 286 286 287 286 287
296 295 295 295 295 295 295 295 295 295 295 295 295 294 294 295 295 295 295 294 295 294 295 295 294 294 294 294 293 294 293 293 293 292 293 292 292 291 290 289 288 288 288 288 288 287 286 285 285 284 284 284 283 284 284 284 285 284 284 282 275 275 276 276 277 277 284 288 287 288 287 287 286 287 287 287 286 286 286 286 286 286 286 286 286
295 296 296 295 295 295 296 296 296 296 296 295 295 295 294 294 294 295 294 295 294 295 295 295 295 295 294 295 293 294 294 294 294 294 293 291 291 291 290 289 289 288 288 288 288 287 286 286 285 284 283 282 282 283 283 283 284 282 277 272 272 274 274 276 283 278 275 280 287 287 287 286 286 286 286 287 287 287 286 286 286 287 287 287 286
Wind_Speed
6 6 6 7 8 9 7 5 4 4 8 11 10 9 10 10 11 10 9 10 11 12 12 11 9 7 5 5 7 8 9 8 8 7 6 6 7 7 7 8 7 6 6 7 5 5 7 6 6 5 6 6 6 6 6 6 6 5 5 5 5 4 4 3 3 5 3 1 2 4 4 5 5 5 5 4 4 4 2 2 4 3 2 3 4
8 7 6 7 7 7 7 4 4 6 9 10 7 6 9 11 11 11 12 12 12 12 12 10 8 9 10 9 7 8 9 9 9 8 8 9 10 6 7 8 7 7 6 8 7 6 8 7 8 6 6 7 6 7 6 6 7 7 6 5 5 5 3 3 3 3 5 4 4 3 4 5 4 6 5 5 5 4 5 4 3 2 2 2 3
8 8 7 7 7 6 6 6 7 8 8 7 6 8 10 11 10 12 12 12 12 11 10 10 11 10 9 9 10 11 10 9 9 11 11 12 10 8 7 8 7 7 7 8 8 7 8 8 6 6 5 6 6 5 6 7 7 7 7 5 5 5 5 3 3 4 5 5 4 5 4 5 3 5 6 4 4 4 5 4 4 3 2 1 1
9 8 8 7 7 6 6 7 8 7 7 6 6 7 7 8 9 10 10 10 11 11 10 10 11 10 10 11 12 12 10 10 10 10 10 9 9 9 8 7 7 7 7 8 8 8 8 7 7 6 6 7 6 5 5 6 6 6 7 6 5 6 5 4 3 2 3 5 4 4 5 4 4 3 4 4 4 4 4 4 3 3 3 3 2
9 9 9 8 6 5 5 5 5 5 5 5 7 7 7 8 9 11 10 10 11 10 9 9 8 9 8 10 10 10 9 10 9 7 6 6 7 7 8 7 7 7 7 7 7 8 8 7 7 7 7 7 6 6 6 7 6 6 6 6 5 5 4 4 3 3 3 4 4 2 3 3 2 3 4 5 5 4 4 3 4 4 4 3 3
9 9 9 9 9 8 6 5 4 6 7 7 7 6 6 7 8 9 10 11 10 10 10 9 9 9 9 9 9 9 9 8 8 8 7 6 5 5 6 6 7 7 7 7 8 7 7 7 8 8 8 7 7 7 7 8 7 6 7 6 5 5 5 4 3 3 3 3 4 4 3 3 3 3 4 4 4 4 4 5 4 4 4 4 5
9 9 8 8 8 8 7 7 6 6 6 7 6 5 6 6 8 10 10 11 11 10 9 9 8 8 9 8 8 9 8 8 7 7 7 6 6 6 6 6 6 5 6 7 7 7 7 7 8 8 8 7 7 7 7 7 6 7 7 6 5 5 5 5 4 4 3 3 3 2 4 3 2 3 4 3 4 4 4 5 5 6 5 6 5
9 9 8 8 8 7 7 6 6 6 5 5 5 5 5 6 8 8 9 10 11 11 8 8 4 3 4 4 2 4 7 7 7 7 7 7 7 6 6 6 6 5 5 5 5 5 5 6 7 6 6 6 7 7 8 7 6 6 5 5 5 6 5 5 4 4 4 4 3 4 3 4 3 1 3 4 4 5 5 5 5 5 6 6 6
10 10 9 9 9 9 9 6 5 4 4 4 4 4 5 6 7 8 9 10 10 9 9 9 10 7 4 3 5 5 6 6 6 6 7 7 6 7 6 6 6 6 6 5 4 4 4 4 3 3 4 6 7 5 4 2 5 6 5 5 6 6 5 5 5 4 4 4 3 3 4 4 4 5 5 5 6 3 4 5 5 3 3 4 5
10 10 10 10 10 9 9 8 6 4 2 3 4 4 5 6 6 8 8 7 8 7 8 5 6 7 7 8 7 4 4 4 7 12 10 8 7 6 5 5 6 6 6 6 5 5 5 5 6 11 10 9 9 8 7 5 6 4 3 5 6 6 6 6 5 5 4 4 4 4 4 4 5 5 4 3 2 2 2 3 4 3 3 4 4
10 10 10 11 10 10 9 8 6 4 1 2 3 4 5 5 6 8 7 6 6 7 8 7 5 6 6 7 6 4 3 4 11 12 12 13 9 7 7 6 6 6 7 6 6 6 6 7 7 9 10 9 10 12 11 11 11 11 12 10 7 0 5 5 4 4 4 3 2 3 2 2 2 2 3 2 3 3 2 2 3 3 4 4 2
10 10 10 11 11 11 10 9 7 5 2 1 1 1 2 1 2 2 4 5 3 5 7 7 6 5 4 3 4 4 3 6 12 12 13 13 10 8 7 7 6 6 7 7 7 7 8 7 7 6 6 9 10 11 11 12 14 14 14 12 11 11 9 3 2 4 3 2 3 2 2 1 2 2 2 3 3 3 3 3 4 4 4 4 3
9 10 11 12 11 11 11 9 8 8 6 3 3 3 3 5 5 5 4 3 2 5 4 6 6 5 5 5 5 4 4 4 9 12 13 12 11 9 7 7 7 7 7 8 8 8 8 8 7 6 7 10 10 10 11 11 13 15 15 15 13 12 10 10 9 3 2 2 2 3 1 2 3 2 2 2 1 2 3 3 3 3 3 3 2
9 10 10 11 12 11 11 10 9 7 6 4 4 4 5 6 5 4 4 4 3 5 6 6 6 5 3 4 5 5 5 4 8 10 11 12 11 7 8 8 7 8 8 7 7 8 8 9 8 7 6 6 8 9 10 10 9 8 8 8 8 9 10 10 9 9 5 3 3 5 4 2 4 4 3 1 2 2 2 1 2 2 2 1 3
11 10 11 11 11 11 11 11 9 8 7 5 5 7 6 6 6 5 5 4 5 5 6 6 5 5 4 4 5 5 4 4 9 12 11 12 11 8 7 7 8 7 6 6 6 6 6 6 8 8 7 6 5 7 10 9 9 8 9 8 8 8 8 8 7 5 6 6 7 7 6 5 5 5 3 2 2 3 3 3 2 2 1 1 3
11 10 10 11 11 12 11 11 10 9 8 6 6 6 6 6 6 6 6 5 5 6 7 6 6 6 5 5 5 6 5 6 9 12 13 12 11 7 7 8 9 8 7 6 6 5 5 6 7 8 7 6 3 4 8 9 9 9 9 9 9 8 8 6 7 8 8 7 6 7 6 6 7 6 5 4 3 2 3 3 2 1 2 3 1
12 11 10 10 11 12 12 11 11 9 8 8 8 6 6 5 4 5 8 6 7 8 8 7 7 6 7 7 7 7 6 7 5 9 12 13 9 7 7 8 8 9 7 7 6 6 5 4 6 6 7 6 3 3 6 9 9 9 9 9 8 8 7 6 8 10 13 14 14 12 10 9 8 7 6 5 3 3 2 2 1 2 2 3 1
11 10 10 10 10 12 11 11 11 10 9 8 8 7 5 5 6 6 8 7 8 8 6 8 9 8 8 8 7 8 7 7 6 6 8 8 8 8 7 8 9 9 8 7 7 7 9 13 7 6 7 6 4 3 4 8 8 8 9 9 9 8 7 6 6 6 10 13 12 11 9 8 8 9 10 11 12 7 3 3 2 1 1 1 2
12 11 10 9 8 10 11 11 11 11 10 9 8 8 7 5 4 8 9 9 8 8 7 8 8 9 9 10 11 10 8 8 9 7 8 7 7 7 8 9 9 8 8 8 7 7 7 9 12 8 8 7 9 9 7 5 8 7 8 8 8 8 5 5 7 8 7 7 7 7 7 6 7 7 8 11 12 10 7 4 2 2 1 2 1
10 10 10 10 8 8 10 11 11 10 10 9 9 9 7 7 7 10 8 9 9 9 8 8 10 9 9 10 9 9 9 8 11 12 11 11 9 7 6 9 10 9 7 8 8 7 7 7 9 10 12 12 12 12 11 9 7 6 6 7 8 8 5 5 4 5 6 6 6 7 8 7 6 6 6 7 7 8 7 6 5 3 3 3 3
10 10 10 11 11 12 12 12 12 11 10 10 9 9 8 8 7 6 9 9 10 9 10 9 10 10 10 10 10 11 8 8 11 14 13 11 11 10 8 8 8 9 9 8 7 7 5 6 5 7 12 13 14 14 13 12 9 7 7 7 6 7 5 5 4 3 5 6 6 6 5 5 6 6 6 6 6 6 6 6 6 5 4 3 2
9 10 11 11 12 14 13 12 12 11 13 11 11 10 10 10 10 9 8 9 12 10 10 7 9 10 10 10 11 11 11 13 8 14 14 14 13 13 8 7 4 9 6 9 7 7 7 6 5 7 12 14 14 14 15 14 12 9 9 10 8 6 5 5 3 4 4 4 5 5 5 5 6 6 6 6 6 5 6 5 6 5 5 5 5
10 11 12 13 12 12 14 15 12 10 12 11 12 11 9 10 9 10 9 8 9 12 11 10 11 10 10 10 10 11 11 10 17 12 15 16 15 14 13 8 9 5 8 10 9 9 8 7 6 9 13 14 14 14 13 13 12 9 9 10 9 7 5 4 4 4 4 4 5 6 5 5 5 6 5 5 5 5 5 6 6 6 6 5 6
9 10 11 12 12 12 11 13 13 11 11 10 12 12 11 9 10 10 9 8 8 9 9 9 9 10 11 10 11 10 9 8 14 16 14 16 15 14 16 15 13 9 9 10 9 9 9 7 6 11 14 14 15 14 13 12 9 10 10 9 8 6 4 4 5 5 5 5 5 5 5 5 5 5 5 4 4 5 5 4 5 5 6 6 6
10 10 11 12 11 11 12 12 12 12 11 12 12 12 12 11 10 10 9 8 8 8 10 8 10 8 9 9 7 8 8 8 9 13 17 16 15 16 16 16 14 15 12 8 8 7 9 11 11 14 14 14 15 14 12 11 11 11 11 9 7 4 4 4 4 4 5 5 5 5 6 5 5 4 3 3 3 3 4 4 4 5 5 6 6
10 10 10 11 11 10 11 13 14 12 12 11 13 11 11 11 11 10 10 9 9 10 8 8 9 10 10 8 7 7 7 7 10 9 9 10 12 16 17 17 17 16 15 12 13 12 11 11 13 12 11 9 8 7 7 7 11 12 11 8 5 4 3 4 4 5 6 5 5 5 5 4 4 3 3 3 5 5 3 3 3 3 2 3 4
9 9 10 9 10 11 12 10 10 11 11 11 11 10 11 11 11 11 10 10 10 9 9 8 7 8 9 7 8 8 9 9 9 8 7 7 6 6 9 10 12 13 10 7 8 8 10 9 9 11 11 13 12 9 7 6 7 6 5 5 5 4 4 4 4 5 5 5 5 5 4 4 4 4 5 5 5 5 4 4 4 4 3 4 4
8 8 10 9 8 8 10 11 11 10 10 9 10 10 10 11 11 10 9 8 9 9 8 9 9 9 8 7 7 8 8 8 7 5 5 5 4 5 5 6 5 5 7 6 6 6 7 7 8 5 5 5 5 5 5 6 6 5 5 4 4 5 6 5 5 5 4 4 5 5 5 4 5 5 5 5 5 4 4 5 5 5 4 4 5
8 9 8 8 8 7 7 8 9 9 10 11 11 9 7 8 10 9 9 6 6 8 7 7 7 6 6 7 6 6 6 6 4 4 3 3 1 4 4 4 5 5 6 8 7 6 6 6 5 5 4 3 3 5 4 5 4 5 5 4 4 4 4 4 5 5 4 4 5 5 5 5 5 5 6 6 6 5 4 5 5 5 5 5 5
7 7 7 7 6 6 7 7 8 8 8 8 9 10 13 13 8 9 7 11 15 14 10 7 4 4 6 6 5 5 3 2 1 1 2 5 8 10 9 9 8 8 7 6 6 6 4 3 3 3 3 3 3 3 3 3 3 3 4 5 5 5 5 4 4 4 4 5 5 4 5 4 5 5 6 6 6 6 5 5 5 4 4 4 4
6 6 6 6 7 6 6 7 7 7 8 8 7 7 6 10 14 14 13 13 14 15 14 14 14 11 5 3 5 9 7 5 4 5 8 10 12 12 11 10 9 8 6 7 4 3 3 4 3 3 3 4 3 2 2 3 3 3 3 3 5 5 3 4 3 2 3 3 3 3 3 3 4 4 6 5 5 5 4 4 4 5 5 5 5
5 5 5 5 6 7 6 6 6 7 7 7 7 7 7 7 8 13 15 16 16 17 16 16 15 15 14 9 4 4 6 7 7 9 9 10 10 11 11 11 9 9 5 8 6 4 3 3 3 3 2 3 3 3 2 3 3 3 3 4 3 2 2 2 2 2 2 3 3 3 3 3 3 4 4 4 4 4 4 3 2 3 4 5 6
6 6 5 5 5 7 6 6 6 6 7 7 7 6 6 6 6 6 6 10 16 18 17 16 15 14 14 13 12 9 7 7 9 10 11 10 10 10 12 11 9 6 9 7 5 4 3 3 4 4 3 3 2 3 4 4 4 3 3 3 3 2 4 2 1 4 2 2 2 2 2 3 4 3 3 3 3 3 3 3 3 3 5 5 6
6 5 4 5 5 5 6 6 6 6 6 5 5 6 6 6 5 5 5 6 6 9 13 16 14 13 14 14 12 10 10 10 11 10 10 9 8 7 10 10 13 12 9 5 4 4 4 4 4 4 4 4 4 3 3 4 4 3 3 4 4 4 3 2 3 2 2 2 2 3 3 3 3 3 3 3 3 3 3 3 3 4 5 5 5
6 6 8 5 5 5 5 5 5 5 5 5 5 5 6 6 6 6 5 5 5 6 5 7 10 12 10 9 12 12 11 11 11 10 10 9 8 5 4 6 5 4 6 5 5 4 4 5 5 5 4 3 3 2 4 4 4 3 3 2 3 3 2 2 2 2 2 3 3 3 3 3 3 2 2 2 3 4 4 4 5 4 4 4 4
6 5 5 5 5 5 5 5 5 5 4 5 5 5 5 5 6 5 5 5 5 5 5 6 4 5 10 12 11 11 11 11 11 12 11 10 7 3 3 3 3 4 4 4 4 4 4 4 4 4 3 3 3 3 3 4 3 3 3 3 2 2 2 2 2 2 2 3 3 4 4 3 2 3 3 3 3 4 4 4 4 4 3 4 4
5 5 5 4 4 5 5 5 5 5 5 5 5 6 6 6 5 5 6 6 6 5 5 4 4 4 5 6 8 7 8 8 9 11 11 11 11 8 5 3 3 4 5 5 4 4 4 4 4 4 4 4 3 3 2 3 3 3 2 2 3 2 2 2 2 3 3 4 4 3 3 3 2 2 2 3 4 4 3 3 3 3 3 3 3
6 5 4 3 4 5 5 5 5 5 5 5 6 6 7 7 7 7 6 5 5 4 4 4 5 5 5 6 4 3 3 3 3 7 8 8 6 5 4 4 5 5 4 4 4 4 4 4 4 4 3 3 3 3 2 2 2 1 2 2 2 2 3 3 2 3 4 4 4 3 3 2 2 2 3 4 4 4 4 3 3 3 3 2 2
6 7 7 7 7 5 4 5 5 6 6 6 7 7 7 7 8 8 8 7 5 4 5 5 5 5 5 5 5 4 2 4 3 3 3 4 4 3 3 4 4 4 5 4 4 4 4 3 3 3 3 2 2 3 3 1 1 1 1 2 2 3 3 3 3 3 3 3 3 3 2 2 2 2 3 4 4 4 4 4 4 4 3 3 3
6 5 6 6 5 6 5 5 5 6 6 6 6 7 7 7 7 6 7 5 5 5 4 6 6 5 5 5 5 5 5 3 3 3 3 3 4 4 4 4 4 5 5 4 4 4 4 3 2 2 2 2 2 3 3 1 1 1 1 1 2 2 2 2 2 3 3 3 3 3 2 2 3 3 3 3 3 4 4 4 4 3 3 3 2
4 5 5 6 4 4 6 5 5 5 4 5 5 6 6 6 6 7 7 5 4 4 6 5 5 4 5 5 6 7 4 4 4 4 4 3 3 3 3 3 3 4 4 3 3 3 3 3 2 1 1 1 2 2 3 1 1 0 1 1 1 2 2 2 1 2 2 2 3 2 2 2 2 2 3 3 4 3 3 2 2 2 2 2 2
5 5 5 5 5 6 5 5 4 4 4 4 5 5 5 5 6 6 6 4 6 5 4 5 4 4 5 7 6 7 4 4 3 4 4 4 4 4 3 4 4 3 2 2 3 2 2 2 2 2 2 2 2 2 2 2 1 1 2 2 2 2 2 2 2 2 1 2 2 1 2 2 2 2 2 3 2 2 2 2 2 2 2 1 1
5 5 4 4 5 5 4 4 3 4 4 4 4 3 3 4 4 4 5 5 4 5 4 4 4 3 3 4 3 3 3 3 4 3 3 3 3 2 3 2 2 3 3 3 2 2 2 2 2 2 2 2 2 2 2 2 2 2 2 2 1 1 2 1 1 1 1 2 2 2 1 1 1 2 2 2 2 2 2 2 1 1 0 1 1
4 4 4 4 4 4 3 3 4 4 4 4 3 3 3 3 3 3 4 4 3 3 3 3 3 4 2 2 1 2 4 3 3 3 3 2 2 2 2 1 2 2 2 1 1 1 1 2 2 2 2 2 3 2 1 1 1 1 1 1 1 0 0 0 1 1 1 1 2 1 2 2 2 2 2 2 1 1 1 2 2 2 2 1 0
3 4 4 4 3 4 4 3 3 3 2 1 3 3 2 3 3 3 3 4 3 3 3 3 3 2 3 2 3 3 3 2 2 1 1 1 1 1 1 1 1 1 1 1 1 1 1 2 2 3 3 2 1 1 1 1 1 1 1 1 0 0 1 1 1 1 1 2 1 1 1 1 1 1 1 1 1 0 1 1 1 2 1 0 0
4 3 3 3 3 3 3 3 2 3 3 3 3 5 4 3 3 3 3 3 3 3 3 2 1 1 2 2 1 2 1 2 0 1 1 0 0 0 0 0 1 0 0 0 0 0 1 1 1 2 2 2 1 1 1 1 1 1 1 1 1 1 1 1 1 1 1 2 2 1 0 0 1 1 3 1 0 1 1 1 0 0 0 1 1
5 5 4 4 3 3 3 2 2 2 2 3 3 2 2 4 3 3 3 3 3 3 3 3 3 1 0 1 1 1 0 0 0 0 0 1 0 0 0 0 0 0 0 0 0 0 0 0 0 0 0 1 1 0 0 0 1 1 0 0 1 1 1 1 1 1 1 1 1 1 1 1 0 0 1 1 0 0 0 0 1 1 0 1 2
4 4 5 4 4 3 3 2 2 1 2 2 2 2 2 2 2 3 4 3 3 4 4 3 3 2 2 1 1 0 1 0 0 0 0 0 0 0 0 0 0 0 0 0 0 0 0 0 0 0 0 1 1 1 1 1 0 0 0 1 1 2 3 3 1 1 0 1 1 1 1 2 1 1 0 0 1 0 1 1 1 2 2 2 2
4 4 4 4 4 3 3 3 3 3 3 2 1 1 2 2 2 2 3 3 3 3 4 4 3 2 2 2 2 2 1 1 1 1 0 0 0 0 1 0 0 0 0 0 0 0 0 0 0 1 1 1 1 1 1 0 0 0 0 1 2 3 2 3 3 1 3 1 0 1 1 1 1 1 0 0 0 1 1 1 1 1 1 2 2
3 3 3 3 3 3 2 2 2 2 2 2 3 3 3 3 2 2 2 2 3 3 3 3 3 2 2 2 2 3 2 2 1 1 1 1 1 0 1 1 1 1 1 0 0 0 1 0 1 1 1 1 1 1 1 1 0 0 0 1 3 3 2 3 2 2 3 1 1 1 1 1 0 1 2 1 1 1 1 1 0 0 1 1 2
2 2 2 2 2 1 1 2 2 2 2 2 3 3 4 4 3 2 2 2 2 3 3 3 3 2 2 2 2 3 3 4 3 3 2 2 2 1 1 1 2 2 2 1 1 1 1 1 1 1 1 2 2 2 1 1 1 1 2 2 2 3 2 3 1 1 2 4 1 1 1 1 1 2 2 2 2 1 1 1 1 1 1 2 2
Wind_Direction
318 307 301 290 275 259 249 238 225 180 175 185 187 173 179 192 196 191 193 200 197 197 194 193 192 181 186 230 228 208 185 170 169 158 163 190 211 209 178 185 183 175 161 166 175 171 181 189 187 182 170 180 184 185 188 178 174 180 179 187 179 177 180 159 125 113 122 93 128 145 145 163 174 188 174 167 165 172 191 147 156 198 165 153 138
328 320 304 287 272 265 264 252 209 205 205 202 176 162 187 196 193 188 193 195 196 197 197 185 176 175 178 183 202 235 207 180 169 163 176 191 203 193 183 182 181 166 166 163 171 176 184 184 189 172 174 183 180 186 179 175 180 179 182 189 177 172 182 175 130 132 134 155 156 138 154 196 176 183 183 181 174 174 180 165 169 192 151 165 162
327 323 305 298 288 268 245 233 230 222 210 202 176 186 198 200 193 192 193 191 195 198 198 185 181 181 177 184 193 216 206 188 170 178 183 194 186 181 180 180 174 169 173 167 172 174 178 182 172 159 167 177 175 182 170 179 183 184 182 189 179 171 175 175 162 143 141 147 160 164 169 179 214 174 190 186 175 182 183 176 176 164 160 163 179
332 324 319 303 301 282 256 238 232 230 224 217 212 209 207 203 194 196 191 183 187 195 195 185 183 181 182 190 192 200 194 188 183 183 181 176 175 173 177 176 174 174 174 174 174 174 177 165 172 167 171 174 174 172 175 176 185 184 185 183 182 175 172 179 200 138 141 144 175 187 159 169 190 176 170 177 181 190 201 168 172 174 172 177 194
333 332 331 327 311 284 256 244 250 252 246 245 242 234 224 208 194 193 184 181 183 185 187 185 177 180 180 183 185 183 180 180 176 173 169 173 172 167 170 174 176 179 179 180 175 180 174 172 165 170 172 171 167 174 173 181 184 181 187 182 188 177 177 193 185 173 162 158 134 147 147 172 155 165 175 184 178 194 191 195 193 194 186 194 208
329 329 334 333 330 328 313 286 259 251 245 240 234 228 220 212 199 193 188 183 178 179 180 183 187 182 182 181 179 176 173 173 171 169 168 165 166 161 162 167 174 179 177 180 180 179 178 174 167 172 175 174 171 170 173 179 180 183 182 182 182 173 186 185 195 187 193 153 146 145 186 175 176 181 187 204 195 189 192 193 197 205 200 201 215
342 340 339 336 332 328 324 309 286 265 251 245 235 226 218 205 199 194 190 182 176 176 177 176 179 179 179 173 171 166 164 165 162 157 158 159 159 159 159 164 168 167 171 175 177 180 182 173 170 174 176 175 165 168 169 174 179 183 179 178 183 174 185 193 194 187 193 160 149 152 156 175 191 179 180 198 211 221 208 198 211 205 204 214 218
349 354 352 345 338 334 326 312 294 282 266 247 234 223 212 203 196 185 182 179 173 170 156 149 101 32 56 91 209 195 152 152 151 151 152 153 154 157 155 156 157 149 152 160 167 174 170 166 168 167 170 171 171 167 170 175 177 179 174 177 176 181 189 187 193 192 188 192 188 167 177 158 171 166 136 175 205 218 225 226 222 203 204 205 220
355 356 359 355 344 338 334 321 305 292 273 252 229 209 200 197 184 178 178 172 165 153 144 145 147 148 139 194 210 182 152 151 147 146 144 148 148 149 153 155 151 144 143 140 141 141 134 119 122 127 87 70 60 72 82 70 176 174 170 177 175 182 185 186 190 196 194 196 179 173 175 181 184 176 182 194 205 210 181 206 235 235 224 215 209
3 359 0 356 348 346 345 338 324 311 278 267 247 217 193 187 178 179 174 156 149 137 130 109 123 136 155 163 195 174 161 145 156 151 151 147 147 144 145 149 147 141 134 126 119 113 110 102 85 84 88 88 87 83 81 75 29 20 154 181 178 185 186 186 187 196 199 198 199 178 188 194 185 195 199 195 186 170 184 201 229 219 217 243 241
5 3 359 354 352 351 352 349 342 335 11 259 257 235 218 196 185 181 153 134 146 137 124 132 120 127 149 157 157 162 148 150 150 154 150 143 140 146 152 149 144 138 133 132 127 115 111 106 112 107 101 92 85 83 84 79 78 74 60 50 35 120 189 184 191 190 197 207 168 195 220 200 161 185 219 199 193 216 224 222 245 241 251 262 255
7 4 358 354 355 358 357 357 8 16 38 296 108 186 229 118 57 48 76 108 139 133 124 131 121 110 105 111 115 125 139 121 153 153 153 153 150 147 146 143 147 139 138 136 128 129 124 122 118 117 113 118 117 105 90 90 93 87 81 75 70 54 37 35 167 174 191 189 169 172 196 183 137 179 194 204 212 211 225 231 232 249 257 260 263
10 7 3 1 358 358 4 6 20 33 27 9 30 36 42 58 74 72 65 67 104 87 75 103 102 103 122 119 101 93 101 106 157 156 155 153 145 143 142 143 144 139 135 136 135 135 133 124 115 106 112 117 112 109 109 98 91 96 98 92 75 69 65 53 30 23 150 131 125 115 84 111 146 115 107 139 136 194 179 205 207 221 238 250 283
13 11 5 3 360 358 7 13 22 37 44 19 27 40 54 63 64 61 68 60 44 80 91 78 81 85 86 103 102 91 94 92 134 140 141 140 145 139 140 135 131 130 131 132 132 133 133 128 122 122 127 120 117 119 118 116 114 107 95 86 83 72 61 50 55 47 33 78 108 105 86 52 81 93 100 181 212 162 184 170 167 199 203 286 22
16 11 10 5 1 0 1 14 16 25 43 33 35 42 42 48 54 48 56 55 55 48 82 81 71 73 73 72 86 75 62 85 125 129 133 135 129 125 126 120 115 108 102 100 100 109 114 115 119 123 126 122 112 122 125 121 112 107 99 88 78 66 53 40 32 38 59 70 83 90 84 67 73 70 66 54 36 33 22 43 43 40 40 102 132
19 9 7 3 3 2 360 10 26 29 30 35 39 50 54 52 57 55 58 43 56 65 49 65 75 75 71 67 76 75 58 46 123 128 127 129 124 121 124 117 114 108 99 86 85 87 91 104 118 118 120 115 90 124 124 126 119 113 106 103 99 84 66 51 26 26 37 53 64 72 69 56 44 44 19 5 28 74 111 125 130 174 228 249 260
18 12 10 4 9 10 10 12 25 32 43 52 49 41 56 53 60 69 70 54 48 52 55 55 57 63 70 72 77 83 73 37 84 125 130 131 123 118 113 105 103 102 94 89 83 72 63 76 105 114 107 104 91 110 126 125 116 113 111 115 112 102 93 84 68 67 75 78 82 84 87 82 76 67 57 23 354 286 193 187 60 340 288 280 273
15 10 6 4 8 17 14 17 24 32 38 50 58 53 44 59 66 63 72 59 50 51 57 68 66 66 66 71 77 86 68 41 69 111 129 126 123 123 116 109 108 104 95 74 77 70 48 31 47 95 95 99 84 99 117 115 114 114 115 116 116 109 103 112 113 98 106 102 101 104 107 111 105 79 47 30 20 2 48 59 48 334 6 6 336
12 6 358 356 4 18 23 23 22 31 44 45 51 55 47 36 71 78 76 70 57 55 51 63 67 65 64 68 61 72 71 52 35 52 63 89 108 117 115 114 114 106 103 92 79 74 60 44 35 55 84 95 87 72 52 80 113 115 117 113 109 111 101 121 123 126 132 129 127 118 97 81 69 64 56 41 29 25 47 59 62 35 45 48 356
8 8 6 4 9 19 24 22 22 23 37 53 54 59 55 51 55 86 82 83 70 59 53 55 63 59 58 60 60 61 65 53 32 39 58 53 57 96 109 118 119 111 99 102 91 77 75 64 49 59 84 86 84 79 67 57 96 102 110 108 110 113 125 113 80 101 103 97 97 93 91 84 78 76 71 66 55 46 37 33 31 55 85 75 50
16 20 21 18 17 26 34 33 27 26 27 53 55 51 49 50 46 52 93 87 89 74 63 64 64 58 52 56 62 55 54 63 48 47 47 48 46 71 83 90 104 108 110 96 101 99 84 71 71 56 80 80 79 76 72 64 65 77 74 91 88 104 117 111 81 44 90 94 96 95 97 90 77 71 71 64 60 58 61 51 48 32 36 48 39
25 31 31 26 31 37 36 40 38 32 35 45 51 50 45 49 56 50 61 84 86 77 77 64 68 63 55 51 55 55 43 49 68 49 49 48 51 65 87 68 67 115 89 104 98 91 95 87 76 71 80 80 79 77 73 69 63 75 78 86 84 86 82 86 88 88 80 81 86 83 80 84 86 84 77 75 71 69 68 74 66 61 52 44 33
34 39 38 32 26 36 41 43 47 43 36 29 43 44 35 36 35 40 48 50 82 93 77 72 71 67 60 52 53 53 48 46 50 54 56 61 57 65 67 72 67 54 101 109 105 101 86 85 82 81 82 80 79 78 80 82 78 82 88 82 83 82 82 81 93 99 99 94 95 90 87 92 92 90 80 76 72 67 73 73 80 86 84 67 52
29 40 43 39 33 32 36 45 50 51 47 42 39 39 36 35 38 35 30 46 48 67 76 72 67 63 63 57 54 51 50 52 50 53 54 56 66 66 73 70 68 80 79 92 93 96 103 84 93 92 86 83 79 75 69 67 78 77 76 80 82 81 89 93 84 82 81 79 75 75 73 75 83 77 66 66 65 67 71 78 84 83 78 79 73
38 40 46 47 44 43 45 42 44 51 51 53 52 42 38 35 43 31 31 34 32 48 62 63 73 68 59 54 44 46 48 53 64 53 55 57 53 62 69 70 71 81 81 70 77 74 90 103 101 88 85 82 81 79 71 67 69 69 70 73 75 68 65 75 87 88 84 81 84 83 79 66 61 58 57 69 93 95 92 92 82 77 83 89 81
47 48 49 49 46 47 54 52 46 49 59 57 59 54 54 51 52 45 42 41 41 41 50 57 68 70 63 58 51 49 44 47 50 49 47 58 66 69 71 74 76 74 83 93 100 104 101 95 85 80 75 76 73 65 65 70 67 63 54 48 60 63 74 92 94 96 91 88 83 83 82 83 79 79 78 80 72 63 59 86 104 97 99 95 86
43 47 50 52 50 48 52 53 56 47 47 61 62 58 56 52 53 52 51 48 48 48 47 46 58 73 73 60 52 43 45 39 35 32 27 41 42 59 78 81 86 91 92 96 91 85 78 78 86 88 93 85 84 84 84 77 63 50 45 41 49 53 52 54 73 89 93 97 99 91 84 78 83 78 74 72 72 60 46 63 80 80 79 74 76
43 47 51 53 53 56 63 56 58 60 46 45 57 62 63 60 55 46 41 44 52 51 48 45 44 47 56 57 54 49 46 43 35 27 22 35 48 53 65 75 77 92 100 95 91 96 102 103 91 83 84 82 77 67 59 60 61 62 62 66 69 74 83 86 77 79 79 88 96 97 93 94 90 88 86 81 77 69 57 63 67 73 66 84 78
50 50 50 55 54 49 59 62 65 65 62 59 54 45 50 67 76 66 43 29 35 54 62 49 45 38 44 36 48 63 52 40 19 349 341 320 88 110 101 106 108 90 95 112 105 84 84 79 75 70 67 73 74 73 75 75 70 66 67 76 86 81 76 76 84 85 97 110 104 104 104 103 101 103 100 88 75 66 59 74 59 65 70 71 69
48 44 42 42 41 50 55 56 59 66 69 65 62 57 44 46 50 75 61 46 54 50 60 63 39 46 65 43 28 49 58 79 116 61 90 88 80 78 79 80 84 103 105 97 105 97 74 76 68 74 74 77 74 71 70 74 81 76 69 56 63 69 67 71 76 83 77 87 97 99 99 100 96 91 89 86 84 77 58 50 68 67 71 68 67
58 50 41 41 25 31 48 54 53 61 64 66 65 67 66 48 49 61 73 66 61 57 55 54 49 40 42 93 60 54 88 95 85 84 86 85 86 86 85 87 90 96 118 112 82 85 97 89 84 75 75 79 81 80 80 86 86 87 76 63 61 67 71 77 79 90 96 98 95 92 92 90 89 86 85 82 83 81 79 70 74 73 74 71 73
55 50 50 48 37 34 43 45 52 63 65 66 67 71 67 66 53 44 52 60 58 56 51 48 45 45 42 36 45 89 59 61 70 70 71 74 79 83 80 79 77 77 73 102 90 77 70 84 80 75 79 82 80 84 79 81 78 83 89 87 72 58 72 87 59 90 101 104 101 96 93 91 92 90 89 88 86 86 87 86 90 89 83 79 69
56 53 51 53 58 52 49 47 44 47 56 61 65 60 64 65 66 65 56 68 68 59 50 46 48 48 49 52 56 66 75 76 71 70 71 70 73 80 81 71 66 76 92 70 84 83 68 72 81 72 69 75 71 72 75 75 79 76 79 88 91 81 76 76 355 77 64 64 85 90 91 93 92 91 91 98 99 99 103 103 96 93 87 81 72
56 48 53 54 57 55 53 55 57 57 53 52 51 54 52 54 59 57 51 28 35 52 53 48 42 49 50 49 48 52 56 61 62 64 66 65 66 69 83 78 66 52 70 91 83 88 85 83 78 71 66 70 77 80 81 78 77 82 82 83 87 88 84 66 86 85 98 99 96 96 95 92 94 104 107 106 108 106 95 85 80 79 72 66 61
77 68 43 42 68 66 65 64 60 57 56 53 49 47 51 46 51 51 48 52 53 41 18 32 40 47 53 46 41 44 46 47 47 43 36 32 31 33 71 70 59 46 45 52 73 81 86 91 94 93 86 78 72 77 86 90 93 95 101 105 109 108 104 100 95 94 100 101 97 90 86 87 90 91 92 96 94 90 85 82 77 73 71 61 55
63 65 65 56 59 66 65 64 60 61 58 55 55 57 49 47 48 51 49 54 51 52 51 41 35 38 53 48 42 43 44 48 50 49 43 36 26 34 70 64 67 50 57 52 62 70 75 83 87 84 76 77 80 82 87 93 95 101 105 112 117 123 122 117 114 104 96 97 96 96 95 99 106 113 112 109 94 81 76 76 82 78 62 51 41
57 60 58 55 63 72 69 62 56 54 58 60 69 68 65 63 57 52 48 42 37 35 44 35 29 45 48 43 25 26 36 42 52 53 47 43 44 56 67 67 77 74 71 72 71 81 80 69 72 82 87 86 87 77 83 94 95 99 80 94 99 105 103 108 107 119 117 109 98 91 97 101 97 86 91 89 89 90 93 93 88 72 53 26 334
54 51 53 47 75 74 76 77 76 64 63 66 67 68 66 62 58 58 57 53 40 37 36 40 35 36 28 11 7 23 1 12 35 47 34 34 37 47 53 59 61 75 76 64 58 63 67 62 56 63 65 78 92 111 100 96 110 124 135 114 109 96 129 112 93 91 97 106 116 123 117 107 96 89 83 78 80 86 83 74 71 86 89 83 42
75 69 59 53 53 57 75 84 78 78 78 73 69 64 58 55 55 53 52 49 44 42 37 39 41 35 19 356 358 355 15 36 33 31 28 37 42 43 52 59 68 70 68 68 65 68 69 65 62 61 66 77 96 116 120 104 116 117 127 132 137 147 156 124 116 111 114 120 126 123 112 99 87 78 80 87 84 80 81 78 72 60 59 59 54
53 59 39 29 63 55 60 67 76 79 68 67 65 63 63 56 53 53 53 51 47 42 40 43 41 31 9 0 1 357 39 39 34 23 28 35 41 46 51 60 60 62 64 65 64 66 72 71 76 84 98 110 119 115 113 86 97 109 130 131 130 122 113 110 111 130 135 135 129 119 100 95 90 85 78 77 78 75 72 72 66 59 43 40 43
62 55 50 43 24 63 59 55 59 54 61 57 60 63 62 55 53 50 49 52 51 51 51 48 49 38 32 14 358 353 45 49 43 41 42 40 43 49 55 61 68 69 70 71 72 78 88 105 115 122 122 112 110 106 108 74 67 76 95 109 104 97 99 109 130 129 130 138 129 114 102 92 86 84 82 79 71 73 73 68 67 60 61 50 19
64 64 55 56 48 56 59 53 59 56 57 56 55 55 59 56 50 48 42 42 41 41 52 55 56 53 48 20 22 0 33 60 53 60 55 49 54 53 55 60 61 64 68 70 72 76 80 87 96 100 96 91 86 88 94 94 91 93 87 89 107 129 145 149 148 120 137 128 111 97 84 68 63 70 65 44 66 62 59 49 46 38 25 10 31
66 68 63 60 56 55 55 59 50 59 59 56 62 55 47 42 47 40 43 35 31 32 36 40 47 58 64 44 14 341 59 67 67 60 59 56 59 59 58 60 62 64 62 62 59 68 80 88 86 84 78 73 66 74 84 82 82 83 78 87 118 145 147 149 133 152 149 127 97 68 59 91 95 80 73 69 57 54 55 47 25 357 353 297 290
88 80 73 67 69 72 55 53 57 49 49 45 37 34 25 28 31 28 26 28 26 20 26 25 23 21 32 101 131 33 52 58 64 71 68 63 59 58 57 58 63 67 75 70 61 56 65 78 84 80 81 78 73 61 56 48 22 54 57 107 115 67 94 70 67 32 7 46 67 73 73 65 57 85 84 68 53 50 58 32 340 329 308 287 291
86 87 88 85 72 74 74 63 58 63 64 80 55 56 26 12 16 10 1 6 8 356 8 11 2 1 12 27 32 35 45 60 80 91 82 76 74 68 64 60 54 63 71 84 84 74 72 78 84 84 80 75 48 62 58 55 39 31 21 5 12 98 60 38 26 9 346 337 4 44 42 57 67 73 87 86 56 358 1 348 341 311 271 298 220
73 73 73 77 86 79 81 90 83 79 64 55 54 46 37 27 21 3 1 348 343 335 338 334 348 345 346 7 19 35 40 42 60 87 113 125 101 75 55 49 55 25 42 53 78 79 50 54 68 81 88 94 92 70 66 57 54 49 18 17 7 12 15 3 341 319 352 353 345 345 45 54 29 38 24 340 38 7 8 356 278 6 72 123 96
62 64 64 69 71 79 70 79 87 69 71 56 46 39 33 29 12 6 6 6 337 332 326 327 306 309 336 345 350 1 30 24 67 45 24 20 45 59 59 33 23 31 55 86 67 133 135 190 96 118 111 95 115 118 122 80 78 79 63 32 43 1 4 359 1 349 349 349 327 311 338 335 350 160 162 243 278 98 59 88 78 60 26 74 117
72 67 63 61 71 82 87 92 96 108 65 64 51 42 29 12 13 7 357 357 354 360 354 346 322 301 282 284 285 300 311 322 337 249 247 214 191 174 119 185 232 223 82 79 101 46 306 251 175 190 206 227 228 203 169 174 156 103 87 74 38 19 357 329 320 322 328 331 330 330 292 289 312 303 295 215 302 319 179 130 126 98 89 99 100
77 76 72 61 60 55 56 54 51 42 40 15 29 4 12 358 4 354 351 352 350 355 0 357 359 340 298 284 280 269 243 260 272 269 246 237 216 187 181 182 198 245 268 317 144 145 204 241 240 232 228 228 217 224 218 201 161 119 66 70 50 2 339 350 322 22 339 314 321 301 283 276 265 253 193 191 173 174 111 77 73 86 96 92 86
82 79 71 74 72 67 54 39 38 38 22 6 357 354 339 326 320 334 338 340 338 345 354 358 353 357 334 304 274 268 262 256 247 247 252 251 240 225 203 186 203 224 236 225 207 171 193 161 203 234 226 230 219 211 202 177 177 94 86 52 2 346 357 358 338 355 305 280 295 304 321 307 225 195 163 155 143 139 140 113 92 115 95 87 84
79 71 69 63 54 47 35 24 19 5 359 349 335 339 340 328 309 299 306 316 326 340 336 337 341 335 329 316 302 277 264 259 258 251 250 248 244 236 230 220 216 218 228 229 229 210 198 197 198 193 208 209 216 210 200 169 160 103 29 346 324 347 8 345 329 89 319 303 260 231 211 184 169 165 168 159 155 134 75 81 87 74 89 84 78